ARIANE 5 DEB (SYLDA), 26722

Orbit data source: Space-Track

ARIANE 5 DEB (SYLDA), 26722 is space debris in HEO originally from a launch on Thu, 08 Mar 2001 UTC launched from the French Guiana (FRGUI). Debris objects in space refer to the collection of defunct objects orbiting the Earth. Examples of debris include non-operational satellites, rocket bodies, and fragments generated from explosions, collisions, or faulty payload assembly.

Loading next visibility...
ARIANE 5 DEB (SYLDA) details
Identifier
26722, 2001-011D
Orbit
HEO
Last TLE update14 hours ago
Origin
Flag of FRArianespace (FR)
ManufacturerAstrium
MissionSpacecraft
Bus & MotorSYLDA 5, Unknown motor
Mass440 kg wet, 440 kg dry
Launch date (UTC)
2001-03-08 (24 years ago)
Launch vehicleUnknown
Launch site
French Guiana (FRGUI)
Object type
Payload
Rocket body
Debris
Shape & HBRCyl, 4.9 m
Radar Cross Section25.270 m², Large (>1 m²)

Expand to show TLE details & history

TLE from 14 hours ago
0 ARIANE 5 DEB (SYLDA)
1 26722U 01011D   25035.63471072 -.00000128  00000-0  80395-3 0  9997
2 26722   1.7444 105.7347 7083138 185.1315 159.0125  2.22964482194806
Epoch: 2025-02-04T15:13Z
Definitive object data (Epoch: 2025-02-04T15:13:59.006Z)
Latitude0.00005°
Longitude102.25467°
Altitude35,505.314 km
Speed1.711 km/s
True Right ascension07h 03m 09s
True Declination0° 00' 00"
Sunlit
Object was in daylight at TLE epoch
Visualization TLE readout
Latitude0.72804°
Longitude126.1642°
Altitude31,140.589 km
Speed2.268 km/s
Apparent Right ascension08h 54m 35s
Apparent Declination-6° 10' 02"
Sunlit
Object is in daylight
Visualization observer readout
Local Sidereal Time06:47:09
Azimuth139.945° SSE
Elevation35.36°
Doppler factor1
Orbital elements
Apogee altitude35,911.564 km
Perigee altitude842.622 km
Semi-major axis24,755.23 km
Eccentricity0.7083138
Inclination1.7444°
RAAN105.7347°
Arg. of periapsis185.1315°
True anomaly174.89088°
Mean anomaly159.0125°
Eccentric anomaly167.67517°
Mean motion0.55724 °/min
BSTAR0.00080395
Orbital period646.04 mins
Loading maneuver chart data...
Loading historical data...
Loading historical data...
Loading historical data...
Loading historical data...
Loading historical data...
Loading historical data...
Loading historical data...
Other satellites on launch #11 in the year 2001 (2001-03-08 UTC)

ARIANE 5 DEB (SYLDA) Visibility forecast

Observer location: undefined°, undefined

Span
Click to sort rows by Start time (UTC) header in descending order
Start Az.
Max El. time (UTC)
Max El. Az.
Max El.
End time (UTC)
End Az.
153 mins2025-02-05 04:45:15.241Z139.959° SSE2025-02-05 05:22:15.241Z142.699° SSE30.398°2025-02-05 07:18:15.241Z121.941° SE
72 mins2025-02-06 02:17:15.241Z106.497° ESE2025-02-06 02:57:15.241Z108.131° ESE10.959°2025-02-06 03:29:15.241Z108.313° ESE
|